Tracking 32963 objects as of 21-Jan-2026
HD Live streaming from Space Station
objects crossing your sky now

SCOUT X-4 DEB

Track SCOUT X-4 DEB now!
10-day predictions


NORAD ID: 2088
Int'l Code: 1965-093D
Perigee: 645.8 km
Apogee: 742.9 km
Inclination: 59.7 °
Period: 98.5 minutes
Semi major axis: 7065 km
RCS: 0.0298 m2 (small)
Launch date: November 19, 1965
Source: United States (US)
Launch site: WALLOPS ISLAND (WLPIS)

Note: This is SATELLITE DEBRIS
Your satellite tracking list
Your tracking list is empty




NASA's NSSDC Master Catalog

Two Line Element Set (TLE):
1 02088U 65093D   26019.61840306  .00001641  00000-0  34940-3 0  9992
2 02088  59.7171 352.3880 0068725 284.0581  75.2834 14.61850525132175
Source of the keplerian elements: AFSPC